STARLINK-1284 (45390 NORAD) Tracking and Keplerian Element Data

This shows tracking and keplerian element data for the satellite.

Feedback or suggestion? Click here.




ElementValue
Catalog45390
NameSTARLINK-1284
Epoch Orbit1126
Epoch Day146.25001157
Epoch Year2020
RAAN282.7125
Inclination53.0001
Eccentricity0.0001524
Argument of Perigee264.1602
Mean Anonmoly302.8258
Mean Motion15.56500429
Decay Rate0.03353163
L11 45390U 20019AG 20146.25001157 .03353163 00000-0 40552-1 0 9998
L22 45390 53.0001 282.7125 0001524 264.1602 302.8258 15.56500429 11267

Live tracking and technical data element details for STARLINK-1284 (NORAD 45390). STARLINK-1284 can be tracked NOW for your location showing map with azimuth and elevation plus other details from your city location.

Track the satellite on the map from your city or location and see movement details for azimuth, elevation, latitude, longitude, range, height, and movement on the map or in text.







IsCatalogInMostPopularTable: catalog: 45390, numindb: 17
Update: records affected: 1



GetName: 45390 STARLINK-1284

Hit Count: updated at: Tue, 26 May 2020 02:17:11 GMT